XBNDC MMTJ-MMTJ

Flight info

Callsign XBNDC
Flight time 0h 39m
Altitude 5000
Route LCL
Aircraft C152/L-SC/C

Departure

Time 2026-04-23 05:00
Airport General Abelardo L. Rodriguez International Airport (MMTJ)

Arrival

Time 2026-04-23 05:39
Airport General Abelardo L. Rodriguez International Airport (MMTJ)
Time Latitude Longitude Altitude Speed Heading
2026-04-23 02:47 32.54353 -116.96399 464 ft 0 kts 253°
2026-04-23 02:48 32.54351 -116.96418 464 ft 4 kts 258°
2026-04-23 02:48 32.54349 -116.96439 464 ft 0 kts 265°
2026-04-23 02:49 32.54348 -116.96453 464 ft 7 kts 264°
2026-04-23 02:49 32.54284 -116.96490 463 ft 0 kts 169°
2026-04-23 02:50 32.54269 -116.96488 463 ft 0 kts 173°
2026-04-23 02:50 32.54249 -116.96487 463 ft 5 kts 186°
2026-04-23 02:50 32.54229 -116.96495 463 ft 0 kts 214°
2026-04-23 02:51 32.54213 -116.96522 463 ft 4 kts 255°
2026-04-23 02:51 32.54212 -116.96532 463 ft 3 kts 270°
2026-04-23 02:51 32.54213 -116.96561 463 ft 8 kts 276°
2026-04-23 02:51 32.54223 -116.96622 464 ft 10 kts 274°
2026-04-23 02:52 32.54242 -116.96766 464 ft 18 kts 279°
2026-04-23 02:52 32.54253 -116.96850 464 ft 6 kts 282°
2026-04-23 02:52 32.54258 -116.96887 465 ft 3 kts 274°
2026-04-23 02:52 32.54258 -116.96899 465 ft 1 kts 274°
2026-04-23 02:53 32.54264 -116.96944 465 ft 7 kts 281°
2026-04-23 02:53 32.54271 -116.96992 466 ft 4 kts 283°
2026-04-23 02:53 32.54278 -116.97034 466 ft 3 kts 278°
2026-04-23 02:53 32.54281 -116.97060 466 ft 3 kts 279°
2026-04-23 02:54 32.54284 -116.97079 466 ft 0 kts 274°
2026-04-23 02:55 32.54286 -116.97101 466 ft 8 kts 280°
2026-04-23 02:55 32.54290 -116.97134 466 ft 0 kts 270°
2026-04-23 03:10 32.54298 -116.97199 466 ft 17 kts 282°
2026-04-23 03:10 32.54317 -116.97337 469 ft 15 kts 276°
2026-04-23 03:10 32.54327 -116.97404 470 ft 14 kts 281°
2026-04-23 03:11 32.54333 -116.97450 470 ft 13 kts 276°
2026-04-23 03:11 32.54345 -116.97548 469 ft 12 kts 277°
2026-04-23 03:11 32.54357 -116.97642 468 ft 11 kts 278°
2026-04-23 03:11 32.54363 -116.97686 468 ft 0 kts 268°
2026-04-23 03:12 32.54363 -116.97700 468 ft 8 kts 281°
2026-04-23 03:12 32.54379 -116.97812 470 ft 15 kts 283°
2026-04-23 03:12 32.54395 -116.97927 471 ft 13 kts 278°
2026-04-23 03:13 32.54407 -116.98020 470 ft 10 kts 279°
2026-04-23 03:13 32.54416 -116.98101 470 ft 9 kts 278°
2026-04-23 03:13 32.54426 -116.98159 470 ft 0 kts 277°
2026-04-23 03:15 32.54431 -116.98193 471 ft 14 kts 276°
2026-04-23 03:15 32.54446 -116.98301 473 ft 11 kts 277°
2026-04-23 03:15 32.54455 -116.98375 474 ft 7 kts 272°
2026-04-23 03:16 32.54456 -116.98382 474 ft 0 kts 281°
2026-04-23 04:56 32.54462 -116.98425 475 ft 11 kts 276°
2026-04-23 04:57 32.54440 -116.98484 476 ft 7 kts 216°
2026-04-23 04:57 32.54406 -116.98518 475 ft 7 kts 203°
2026-04-23 04:57 32.54357 -116.98533 476 ft 8 kts 198°
2026-04-23 04:57 32.54306 -116.98515 476 ft 8 kts 107°
2026-04-23 04:58 32.54305 -116.98511 476 ft 0 kts 103°
2026-04-23 04:59 32.54275 -116.98253 473 ft 60 kts 96°
2026-04-23 04:59 32.54192 -116.97652 519 ft 83 kts 98°
2026-04-23 04:59 32.54015 -116.97059 753 ft 71 kts 140°
2026-04-23 04:59 32.53602 -116.96762 911 ft 71 kts 162°
2026-04-23 05:00 32.53139 -116.96485 1157 ft 66 kts 152°
2026-04-23 05:00 32.52728 -116.96228 1274 ft 75 kts 159°
2026-04-23 05:00 32.52227 -116.95980 1432 ft 79 kts 156°
2026-04-23 05:00 32.51700 -116.95751 1525 ft 81 kts 166°
2026-04-23 05:01 32.51179 -116.95533 1746 ft 78 kts 162°
2026-04-23 05:01 32.50655 -116.95323 1890 ft 83 kts 164°
2026-04-23 05:01 32.50104 -116.95069 2034 ft 86 kts 161°
2026-04-23 05:01 32.49550 -116.94831 2232 ft 82 kts 161°
2026-04-23 05:02 32.49022 -116.94592 2407 ft 82 kts 162°
2026-04-23 05:02 32.48479 -116.94362 2557 ft 83 kts 159°
2026-04-23 05:02 32.47954 -116.94113 2754 ft 80 kts 159°
2026-04-23 05:02 32.47422 -116.93886 2900 ft 83 kts 160°
2026-04-23 05:03 32.46870 -116.93642 3011 ft 86 kts 163°
2026-04-23 05:03 32.46298 -116.93385 3092 ft 94 kts 162°
2026-04-23 05:03 32.45694 -116.93125 3187 ft 88 kts 161°
2026-04-23 05:03 32.45101 -116.92888 3247 ft 91 kts 161°
2026-04-23 05:04 32.44494 -116.92629 3302 ft 93 kts 163°
2026-04-23 05:04 32.43859 -116.92369 3314 ft 99 kts 160°
2026-04-23 05:04 32.43187 -116.92092 3291 ft 101 kts 160°
2026-04-23 05:04 32.42529 -116.91809 3298 ft 103 kts 161°
2026-04-23 05:05 32.41841 -116.91509 3283 ft 106 kts 164°
2026-04-23 05:05 32.41166 -116.91217 3279 ft 103 kts 163°
2026-04-23 05:05 32.40471 -116.90936 3266 ft 106 kts 163°
2026-04-23 05:05 32.39790 -116.90656 3311 ft 104 kts 160°
2026-04-23 05:06 32.39138 -116.90357 3284 ft 98 kts 163°
2026-04-23 05:06 32.38465 -116.90143 3238 ft 100 kts 168°
2026-04-23 05:06 32.37749 -116.89997 3143 ft 102 kts 178°
2026-04-23 05:06 32.37044 -116.89932 3061 ft 104 kts 179°
2026-04-23 05:07 32.36322 -116.89877 2995 ft 103 kts 182°
2026-04-23 05:07 32.35605 -116.89867 2971 ft 102 kts 186°
2026-04-23 05:07 32.34909 -116.89913 2987 ft 100 kts 185°
2026-04-23 05:07 32.34227 -116.89911 3068 ft 90 kts 183°
2026-04-23 05:08 32.33730 -116.90169 3153 ft 76 kts 239°
2026-04-23 05:08 32.33565 -116.90713 3149 ft 67 kts 276°
2026-04-23 05:08 32.33479 -116.91241 3197 ft 66 kts 263°
2026-04-23 05:08 32.33288 -116.91760 3149 ft 72 kts 257°
2026-04-23 05:09 32.33026 -116.92275 3110 ft 72 kts 253°
2026-04-23 05:09 32.32890 -116.92829 3108 ft 71 kts 276°
2026-04-23 05:09 32.32838 -116.93415 3079 ft 71 kts 275°
2026-04-23 05:09 32.32790 -116.93990 3045 ft 72 kts 275°
2026-04-23 05:10 32.32750 -116.94581 2986 ft 74 kts 273°
2026-04-23 05:10 32.32707 -116.95188 2919 ft 73 kts 278°
2026-04-23 05:10 32.32685 -116.95788 2896 ft 74 kts 273°
2026-04-23 05:10 32.32545 -116.96382 2925 ft 77 kts 261°
2026-04-23 05:11 32.32458 -116.96976 2992 ft 70 kts 285°
2026-04-23 05:11 32.32517 -116.97558 3023 ft 70 kts 282°
2026-04-23 05:11 32.32482 -116.98149 3015 ft 73 kts 271°
2026-04-23 05:11 32.32524 -116.98719 3006 ft 67 kts 295°
2026-04-23 05:12 32.32681 -116.99227 3038 ft 62 kts 300°
2026-04-23 05:12 32.32758 -116.99739 3014 ft 66 kts 288°
2026-04-23 05:12 32.32833 -117.00302 2974 ft 70 kts 289°
2026-04-23 05:12 32.32941 -117.00862 2991 ft 73 kts 286°
2026-04-23 05:13 32.32896 -117.01447 3021 ft 70 kts 270°
2026-04-23 05:13 32.32909 -117.02015 3037 ft 68 kts 289°
2026-04-23 05:13 32.33017 -117.02580 3059 ft 73 kts 291°
2026-04-23 05:14 32.33258 -117.03671 3103 ft 70 kts 292°
2026-04-23 05:14 32.33427 -117.04223 3102 ft 70 kts 298°
2026-04-23 05:14 32.33584 -117.04769 3138 ft 71 kts 292°
2026-04-23 05:14 32.33705 -117.05315 3177 ft 69 kts 292°
2026-04-23 05:15 32.33806 -117.05881 3198 ft 70 kts 290°
2026-04-23 05:15 32.34021 -117.06388 3207 ft 69 kts 307°
2026-04-23 05:15 32.34232 -117.06894 3240 ft 69 kts 294°
2026-04-23 05:15 32.34334 -117.07472 3245 ft 72 kts 284°
2026-04-23 05:16 32.34372 -117.08067 3263 ft 73 kts 285°
2026-04-23 05:16 32.34436 -117.08643 3281 ft 70 kts 289°
2026-04-23 05:16 32.34648 -117.09155 3258 ft 70 kts 306°
2026-04-23 05:16 32.34934 -117.09606 3238 ft 69 kts 315°
2026-04-23 05:17 32.35249 -117.10025 3257 ft 68 kts 314°
2026-04-23 05:17 32.35530 -117.10464 3279 ft 67 kts 308°
2026-04-23 05:17 32.35852 -117.10881 3249 ft 70 kts 322°
2026-04-23 05:17 32.36194 -117.11268 3292 ft 67 kts 316°
2026-04-23 05:18 32.36488 -117.11685 3315 ft 67 kts 313°
2026-04-23 05:18 32.36745 -117.12155 3322 ft 69 kts 302°
2026-04-23 05:18 32.36929 -117.12686 3334 ft 69 kts 302°
2026-04-23 05:18 32.37187 -117.13159 3337 ft 68 kts 315°
2026-04-23 05:19 32.37537 -117.13549 3282 ft 73 kts 320°
2026-04-23 05:19 32.37915 -117.13941 3239 ft 73 kts 324°
2026-04-23 05:19 32.38312 -117.14313 3189 ft 75 kts 324°
2026-04-23 05:19 32.38694 -117.14739 3165 ft 73 kts 321°
2026-04-23 05:20 32.39025 -117.15134 3241 ft 65 kts 314°
2026-04-23 05:20 32.39327 -117.15547 3234 ft 67 kts 316°
2026-04-23 05:20 32.39635 -117.15966 3241 ft 67 kts 317°
2026-04-23 05:20 32.39981 -117.16332 3252 ft 66 kts 323°
2026-04-23 05:21 32.40325 -117.16709 3249 ft 68 kts 318°
2026-04-23 05:21 32.40655 -117.17111 3241 ft 70 kts 311°
2026-04-23 05:21 32.40890 -117.17604 3260 ft 65 kts 301°
2026-04-23 05:21 32.41218 -117.17934 3256 ft 64 kts 335°
2026-04-23 05:22 32.41618 -117.18160 3262 ft 65 kts 332°
2026-04-23 05:22 32.42019 -117.18394 3265 ft 65 kts 333°
2026-04-23 05:22 32.42451 -117.18582 3233 ft 67 kts 338°
2026-04-23 05:22 32.42865 -117.18770 3254 ft 62 kts 334°
2026-04-23 05:23 32.43260 -117.18992 3249 ft 66 kts 330°
2026-04-23 05:23 32.43641 -117.19288 3290 ft 64 kts 321°
2026-04-23 05:23 32.43961 -117.19671 3282 ft 68 kts 314°
2026-04-23 05:23 32.44296 -117.20078 3266 ft 70 kts 316°
2026-04-23 05:24 32.44650 -117.20466 3254 ft 67 kts 331°
2026-04-23 05:24 32.45095 -117.20616 3233 ft 68 kts 342°
2026-04-23 05:24 32.45553 -117.20730 3252 ft 66 kts 346°
2026-04-23 05:24 32.46023 -117.20851 3207 ft 71 kts 344°
2026-04-23 05:25 32.46498 -117.20931 3239 ft 67 kts 348°
2026-04-23 05:25 32.46979 -117.20984 3222 ft 69 kts 347°
2026-04-23 05:25 32.47441 -117.21051 3238 ft 65 kts 348°
2026-04-23 05:25 32.47897 -117.21126 3209 ft 68 kts 346°
2026-04-23 05:26 32.48347 -117.21242 3078 ft 69 kts 345°
2026-04-23 05:26 32.48835 -117.21370 2893 ft 71 kts 345°
2026-04-23 05:26 32.49313 -117.21479 2738 ft 67 kts 346°
2026-04-23 05:26 32.49760 -117.21596 2616 ft 64 kts 343°
2026-04-23 05:27 32.50175 -117.21711 2510 ft 57 kts 341°
2026-04-23 05:27 32.50574 -117.21860 2365 ft 61 kts 335°
2026-04-23 05:27 32.50994 -117.22025 2400 ft 69 kts 333°
2026-04-23 05:27 32.51440 -117.22184 2468 ft 66 kts 343°
2026-04-23 05:28 32.51877 -117.22300 2473 ft 62 kts 342°
2026-04-23 05:28 32.52319 -117.22427 2412 ft 66 kts 342°
2026-04-23 05:28 32.52729 -117.22523 2451 ft 58 kts 344°
2026-04-23 05:28 32.53154 -117.22484 2426 ft 59 kts 354°
2026-04-23 05:29 32.53522 -117.22446 2491 ft 50 kts 351°
2026-04-23 05:29 32.53898 -117.22438 2459 ft 56 kts 356°
2026-04-23 05:29 32.54297 -117.22298 2382 ft 68 kts 22°
2026-04-23 05:29 32.54638 -117.21862 2336 ft 74 kts 47°
2026-04-23 05:30 32.54919 -117.21391 2367 ft 71 kts 39°
2026-04-23 05:30 32.55270 -117.20942 2473 ft 82 kts 45°
2026-04-23 05:30 32.55489 -117.20269 2555 ft 84 kts 65°
2026-04-23 05:30 32.55662 -117.19573 2632 ft 89 kts 66°
2026-04-23 05:31 32.55795 -117.18843 2712 ft 94 kts 65°
2026-04-23 05:31 32.55976 -117.18067 2662 ft 104 kts 68°
2026-04-23 05:31 32.56103 -117.17323 2628 ft 83 kts 68°
2026-04-23 05:31 32.56133 -117.16671 2587 ft 76 kts 79°
2026-04-23 05:32 32.56203 -117.16081 2527 ft 72 kts 75°
2026-04-23 05:32 32.56265 -117.15475 2420 ft 76 kts 78°
2026-04-23 05:32 32.56290 -117.14853 2342 ft 78 kts 85°
2026-04-23 05:32 32.56181 -117.14215 2238 ft 80 kts 101°
2026-04-23 05:33 32.56049 -117.13571 2135 ft 80 kts 99°
2026-04-23 05:33 32.55919 -117.12934 2046 ft 79 kts 97°
2026-04-23 05:33 32.55854 -117.12295 1968 ft 74 kts 88°
2026-04-23 05:33 32.55826 -117.11678 1972 ft 76 kts 88°
2026-04-23 05:34 32.55782 -117.11040 1978 ft 78 kts 89°
2026-04-23 05:34 32.55732 -117.10411 1995 ft 77 kts 89°
2026-04-23 05:34 32.55683 -117.09778 2013 ft 77 kts 88°
2026-04-23 05:34 32.55635 -117.09136 2002 ft 79 kts 90°
2026-04-23 05:35 32.55593 -117.08476 1985 ft 81 kts 91°
2026-04-23 05:35 32.55500 -117.07816 1980 ft 82 kts 94°
2026-04-23 05:35 32.55455 -117.07162 2006 ft 78 kts 88°
2026-04-23 05:35 32.55372 -117.06531 1896 ft 74 kts 99°
2026-04-23 05:36 32.55270 -117.05908 1785 ft 81 kts 88°
2026-04-23 05:36 32.55152 -117.05272 1688 ft 78 kts 111°
2026-04-23 05:36 32.55049 -117.04659 1549 ft 81 kts 95°
2026-04-23 05:36 32.55004 -117.04002 1406 ft 74 kts 83°
2026-04-23 05:37 32.54945 -117.03436 1339 ft 77 kts 100°
2026-04-23 05:37 32.54833 -117.02799 1230 ft 80 kts 96°
2026-04-23 05:37 32.54787 -117.02159 1111 ft 77 kts 99°
2026-04-23 05:37 32.54685 -117.01548 1032 ft 76 kts 93°
2026-04-23 05:38 32.54625 -117.00935 938 ft 75 kts 97°
2026-04-23 05:38 32.54532 -117.00270 828 ft 88 kts 98°
2026-04-23 05:38 32.54436 -116.99543 706 ft 91 kts 97°
2026-04-23 05:38 32.54344 -116.98825 589 ft 87 kts 97°
2026-04-23 05:39 32.54256 -116.98154 478 ft 76 kts 96°
2026-04-23 05:39 32.54201 -116.97714 472 ft 25 kts 101°
2026-04-23 05:39 32.54190 -116.97643 472 ft 0 kts 104°